User: anonymous   Login
Location: Aiyekoto
(8.4333°N, 4.3667°E)
Time: 12:28:21
(UTC+00:00)
Language:

Cosmos 1782 - Orbit

View from above orbital plane
View from above orbital plane
View from above satellite
View from above satellite

Ground track
Ground track

The orbit data is extracted from the following two-line orbital elements,

1 16986U 86074A   20219.10991776  .00001079  00000-0  69490-4 0  9998
2 16986  82.5060  85.7935 0012170  25.8358 334.3475 15.07291577843437
Epoch (UTC): 06 August 2020 02:38:16
Eccentricity: 0.0012170
inclination: 82.5060°
perigee height: 536 km
apogee height: 553 km
right ascension of ascending node: 85.7935°
argument of perigee: 25.8358°
revolutions per day: 15.07291577
mean anomaly at epoch: 334.3475°
orbit number at epoch: 84343

The dashed part of the orbit path shows where the satellite is in the earth's shadow,  

DLR